When you browse on this site, cookies collect data to enhance your experience and personalize the content and advertising you see.
Visit our Privacy Policy to learn more. By continuing to use the site, you agree to this use of cookies and data.
  • In Belgium
  • List of Countries
  • For 7 days
  • Water Temperature
  • Satellite Maps
  • Weather Map
  • Weather Widgets
  • user-avatar
    Login

    Hourly Weather Drogobych

    Today, 16 December, Sunday

    Time Temperature Precipitation Wind Pressure Humidity
    00:00 -5°C° 0.2 mm 5 mps 739 mmHg 89%
    01:00 -5°C° 0.2 mm 5 mps 738 mmHg 88%
    02:00 -5°C° 0 mm 3 mps 738 mmHg 89%
    03:00 -5°C° 0.1 mm 4 mps 738 mmHg 89%
    04:00 -5°C° 0.1 mm 4 mps 738 mmHg 89%
    05:00 -5°C° 0.1 mm 4 mps 738 mmHg 89%
    06:00 -4°C° 0.1 mm 4 mps 738 mmHg 89%
    07:00 -4°C° 0.1 mm 4 mps 737 mmHg 90%
    08:00 -4°C° 0 mm 4 mps 737 mmHg 90%
    09:00 -4°C° 0.2 mm 4 mps 737 mmHg 89%
    10:00 -3°C° 0.2 mm 4 mps 738 mmHg 88%
    11:00 -3°C° 0.2 mm 4 mps 738 mmHg 87%
    12:00 -2°C° 0.1 mm 4 mps 738 mmHg 87%
    13:00 -2°C° 0.1 mm 4 mps 738 mmHg 87%
    14:00 -1°C° 0.1 mm 4 mps 738 mmHg 87%
    15:00 0°C° 0.1 mm 3 mps 738 mmHg 89%
    16:00 -1°C° 0.1 mm 3 mps 738 mmHg 91%
    17:00 -1°C° 0.1 mm 3 mps 738 mmHg 93%
    18:00 -1°C° 0.1 mm 3 mps 738 mmHg 94%
    19:00 -2°C° 0.1 mm 2 mps 738 mmHg 94%
    20:00 -2°C° 0.1 mm 2 mps 738 mmHg 95%
    21:00 -2°C° 0.2 mm 2 mps 738 mmHg 95%
    22:00 -2°C° 0.2 mm 2 mps 738 mmHg 96%
    23:00 -2°C° 0.2 mm 2 mps 739 mmHg 96%

    Tomorrow, 17 December, Monday

    Time Temperature Precipitation Wind Pressure Humidity
    00:00 -2°C° 0.3 mm 2 mps 739 mmHg 96%
    01:00 -2°C° 0.3 mm 2 mps 739 mmHg 96%
    02:00 -2°C° 0.3 mm 2 mps 739 mmHg 96%
    03:00 -2°C° 0.2 mm 2 mps 738 mmHg 96%
    04:00 -2°C° 0.2 mm 2 mps 738 mmHg 96%
    05:00 0°C° 0.2 mm 1 mps 738 mmHg 96%
    06:00 0°C° 0.1 mm 1 mps 738 mmHg 96%
    07:00 0°C° 0.1 mm 1 mps 738 mmHg 96%
    08:00 0°C° 0.1 mm 1 mps 738 mmHg 96%
    09:00 0°C° 0.1 mm 1 mps 738 mmHg 95%
    10:00 +1°C° 0.1 mm 1 mps 738 mmHg 94%
    11:00 +1°C° 0.1 mm 1 mps 739 mmHg 93%
    12:00 +2°C° 0 mm 1 mps 739 mmHg 94%
    13:00 +2°C° 0 mm 1 mps 739 mmHg 94%
    14:00 +2°C° 0 mm 1 mps 739 mmHg 95%
    15:00 +2°C° 0.1 mm 1 mps 739 mmHg 96%
    16:00 +1°C° 0.1 mm 1 mps 739 mmHg 96%
    17:00 +1°C° 0.1 mm 1 mps 739 mmHg 97%
    18:00 0°C° 0.1 mm 1 mps 740 mmHg 97%
    19:00 0°C° 0.1 mm 1 mps 740 mmHg 97%
    20:00 0°C° 0.1 mm 1 mps 741 mmHg 97%
    21:00 0°C° 0.1 mm 1 mps 741 mmHg 96%
    22:00 0°C° 0.1 mm 1 mps 741 mmHg 96%
    23:00 -2°C° 0.1 mm 2 mps 742 mmHg 95%

    Day after tomorrow, 18 December, Tuesday

    Time Temperature Precipitation Wind Pressure Humidity
    00:00 -1°C° 0 mm 1 mps 742 mmHg 95%
    01:00 -1°C° 0 mm 1 mps 742 mmHg 94%
    02:00 -2°C° 0 mm 1 mps 742 mmHg 94%
    03:00 -4°C° 0 mm 2 mps 742 mmHg 94%
    04:00 -4°C° 0 mm 2 mps 742 mmHg 94%
    05:00 -4°C° 0 mm 2 mps 742 mmHg 93%
    06:00 -2°C° 0 mm 1 mps 743 mmHg 94%
    07:00 -2°C° 0 mm 1 mps 743 mmHg 94%
    08:00 -2°C° 0 mm 1 mps 743 mmHg 94%
    09:00 -1°C° 0 mm 1 mps 744 mmHg 92%
    10:00 -1°C° 0 mm 1 mps 744 mmHg 91%
    11:00 0°C° 0 mm 1 mps 744 mmHg 89%
    12:00 0°C° 0 mm 1 mps 744 mmHg 89%
    13:00 +1°C° 0 mm 1 mps 744 mmHg 88%
    14:00 +1°C° 0 mm 1 mps 743 mmHg 87%
    15:00 0°C° 0 mm 1 mps 744 mmHg 89%
    16:00 0°C° 0 mm 1 mps 744 mmHg 91%
    17:00 -1°C° 0 mm 1 mps 744 mmHg 93%
    18:00 -1°C° 0 mm 1 mps 744 mmHg 93%
    19:00 -1°C° 0 mm 1 mps 744 mmHg 94%
    20:00 -2°C° 0 mm 1 mps 744 mmHg 94%
    21:00 -2°C° 0 mm 1 mps 744 mmHg 94%
    22:00 -2°C° 0 mm 1 mps 744 mmHg 94%
    23:00 -2°C° 0 mm 1 mps 744 mmHg 94%

    19 December, Wednesday

    Time Temperature Precipitation Wind Pressure Humidity
    00:00 -3°C° 0 mm 1 mps 744 mmHg 94%
    01:00 -3°C° 0 mm 1 mps 744 mmHg 94%
    02:00 -3°C° 0 mm 1 mps 744 mmHg 93%
    03:00 -3°C° 0 mm 1 mps 743 mmHg 93%
    04:00 -3°C° 0 mm 1 mps 743 mmHg 92%
    05:00 -3°C° 0 mm 1 mps 743 mmHg 92%
    06:00 -6°C° 0 mm 2 mps 743 mmHg 92%
    07:00 -6°C° 0 mm 2 mps 743 mmHg 91%
    08:00 -6°C° 0 mm 2 mps 743 mmHg 91%
    09:00 -5°C° 0 mm 2 mps 743 mmHg 90%
    10:00 -4°C° 0 mm 2 mps 743 mmHg 88%
    11:00 -3°C° 0 mm 2 mps 744 mmHg 86%
    12:00 -3°C° 0 mm 2 mps 743 mmHg 85%
    13:00 -3°C° 0 mm 2 mps 743 mmHg 85%
    14:00 -2°C° 0 mm 2 mps 743 mmHg 84%
    15:00 -3°C° 0 mm 2 mps 743 mmHg 87%
    16:00 -4°C° 0 mm 2 mps 743 mmHg 90%
    17:00 -5°C° 0 mm 2 mps 743 mmHg 92%
    18:00 -5°C° 0 mm 2 mps 743 mmHg 92%
    19:00 -5°C° 0 mm 2 mps 743 mmHg 92%
    20:00 -6°C° 0 mm 2 mps 743 mmHg 93%
    21:00 -6°C° 0 mm 2 mps 743 mmHg 92%
    22:00 -7°C° 0 mm 3 mps 743 mmHg 92%
    23:00 -7°C° 0 mm 3 mps 743 mmHg 91%

    20 December, Thursday

    Time Temperature Precipitation Wind Pressure Humidity
    00:00 -7°C° 0 mm 3 mps 743 mmHg 90%
    01:00 -7°C° 0 mm 3 mps 742 mmHg 89%
    02:00 -7°C° 0 mm 3 mps 742 mmHg 89%
    03:00 -7°C° 0 mm 3 mps 742 mmHg 88%
    04:00 -7°C° 0 mm 3 mps 742 mmHg 87%
    05:00 -7°C° 0 mm 3 mps 742 mmHg 86%
    06:00 -7°C° 0 mm 3 mps 742 mmHg 86%
    07:00 -7°C° 0 mm 3 mps 742 mmHg 85%
    08:00 -7°C° 0 mm 3 mps 742 mmHg 84%
    09:00 -6°C° 0 mm 3 mps 742 mmHg 83%
    10:00 -6°C° 0 mm 3 mps 742 mmHg 82%
    11:00 -5°C° 0 mm 3 mps 742 mmHg 81%
    12:00 -4°C° 0 mm 3 mps 742 mmHg 81%
    13:00 -4°C° 0 mm 3 mps 741 mmHg 81%
    14:00 -2°C° 0 mm 3 mps 741 mmHg 82%
    15:00 -4°C° 0 mm 3 mps 741 mmHg 83%
    16:00 -4°C° 0 mm 3 mps 741 mmHg 85%
    17:00 -5°C° 0 mm 3 mps 741 mmHg 87%
    18:00 -5°C° 0.1 mm 3 mps 741 mmHg 88%
    19:00 -5°C° 0.1 mm 3 mps 741 mmHg 89%
    20:00 -5°C° 0.1 mm 3 mps 741 mmHg 89%
    21:00 -5°C° 0.2 mm 3 mps 741 mmHg 90%
    22:00 -4°C° 0.2 mm 3 mps 741 mmHg 90%
    23:00 -3°C° 0.2 mm 2 mps 741 mmHg 90%

    21 December, Friday

    Time Temperature Precipitation Wind Pressure Humidity
    00:00 -3°C° 0 mm 2 mps 741 mmHg 90%
    01:00 -3°C° 0 mm 2 mps 741 mmHg 89%
    02:00 -3°C° 0 mm 2 mps 741 mmHg 88%
    03:00 -4°C° 0 mm 2 mps 740 mmHg 88%
    04:00 -2°C° 0 mm 1 mps 740 mmHg 87%
    05:00 -2°C° 0 mm 1 mps 740 mmHg 86%
    06:00 -2°C° 0 mm 1 mps 740 mmHg 86%
    07:00 -3°C° 0 mm 1 mps 740 mmHg 85%
    08:00 -3°C° 0 mm 1 mps 740 mmHg 85%
    09:00 -2°C° 0 mm 1 mps 740 mmHg 84%
    10:00 -1°C° 0 mm 1 mps 741 mmHg 84%
    11:00 0°C° 0 mm 1 mps 741 mmHg 83%
    12:00 +1°C° 0 mm 1 mps 740 mmHg 84%
    13:00 +1°C° 0 mm 1 mps 740 mmHg 84%
    14:00 +1°C° 0 mm 1 mps 740 mmHg 85%
    15:00 +1°C° 0 mm 1 mps 740 mmHg 86%
    16:00 -2°C° 0 mm 2 mps 740 mmHg 87%
    17:00 -3°C° 0 mm 2 mps 740 mmHg 89%
    18:00 -3°C° 0 mm 2 mps 740 mmHg 88%
    19:00 -3°C° 0 mm 2 mps 739 mmHg 88%
    20:00 -3°C° 0 mm 2 mps 739 mmHg 88%
    21:00 -4°C° 0 mm 3 mps 739 mmHg 87%
    22:00 -4°C° 0 mm 3 mps 739 mmHg 86%
    23:00 -4°C° 0 mm 3 mps 738 mmHg 86%
    Show more